[[{"header":{"parameterUnit":"m.s-1","parameterCategory":1,"la1":30.2991,"la2":30.254,"lo1":-89.0895,"lo2":-89.0444,"dy":0.0017,"dx":0.0017,"nx":28,"ny":28,"refTime":"2024-02-13T09:00:00:Z","depth":0,"parameterNumber":2,"parameterNumberName":"U-component_of_WINDS"},"data":[0,0,0,0,0,0,0,0,0,0,0,0,0,0,0,0,0,0,0,0,0,0,0,0,0,0,0,0,0,0,0,0,0,0,0,0,0,0,0,0,0,0,0,0,0,0,0,0,0,0,0,0,0,0,0,0,0,0,1.495,1.495,0,1.5028,1.5029,1.503,1.5039,1.5038,1.5037,1.5037,1.512,1.5123,1.5126,0,0,0,0,0,0,0,0,0,0,0,0,0,1.481,1.4812,1.4949,1.495,1.4951,1.5028,1.5029,1.5031,1.5039,1.5038,1.5037,1.5036,1.5119,1.5123,1.5126,0,0,0,0,0,0,0,0,0,0,0,0,0,1.4878,1.4813,1.4949,1.4965,1.4967,1.5028,1.5029,1.5031,1.5039,1.5038,1.5037,1.5036,1.5118,1.5122,1.5127,1.5178,0,0,1.514,1.5142,0,0,0,0,0,0,0,0,1.4874,1.4883,1.4962,1.4964,1.4967,1.5023,1.5011,1.508,1.504,1.5012,1.5037,1.5035,1.5089,1.5096,1.5113,1.5182,1.5186,1.5141,1.5143,1.5145,1.5147,0,0,0,0,0,0,0,1.4869,1.488,1.4981,1.4963,1.4966,1.4969,1.4978,1.5024,1.5056,1.5014,1.5015,1.5024,1.509,1.5109,1.5115,1.5187,1.5141,1.5145,1.5147,1.5149,1.5305,1.5306,0,0,0,0,0,0,1.4861,1.4876,1.4978,1.4983,1.4916,1.4973,1.4982,1.5006,1.5056,1.5062,1.5025,1.5024,1.5102,1.511,1.5118,1.5184,1.5145,1.5149,1.5152,1.5303,1.5305,1.5307,0,0,0,0,0,0,1.4858,1.487,1.4975,1.493,1.4943,1.4976,1.5003,1.5008,1.5027,1.5064,1.507,1.5038,1.5101,1.5112,1.5164,1.5186,1.5151,1.5156,1.5302,1.5304,1.5306,1.5313,0,0,0,0,0,0,1.4854,1.4869,1.4888,1.493,1.4946,1.5018,1.5004,1.501,1.5034,1.5034,1.5078,1.5084,1.5101,1.5157,1.5168,1.5192,1.5159,1.53,1.5303,1.5305,1.5311,1.5316,1.5319,0,0,0,0,0,1.4849,1.4887,1.4889,1.4901,1.497,1.5019,1.5029,1.5047,1.5036,1.5056,1.508,1.5083,1.5182,1.5162,1.5175,1.52,1.5299,1.5302,1.5305,1.531,1.5315,1.5319,0,0,0,0,0,0,1.4848,1.4893,1.4895,1.4948,1.498,1.5021,1.5047,1.5051,1.5087,1.5086,1.5107,1.5117,1.5168,1.5189,1.5167,1.5254,1.5239,1.5245,1.5238,1.5244,1.5248,1.5242,1.5163,0,0,0,0,0,1.4853,1.4888,1.4927,1.4969,1.4985,1.5013,1.5035,1.5047,1.5081,1.5094,1.5122,1.5156,1.5195,1.5221,1.5258,1.5314,1.5325,1.5338,1.5342,1.5345,1.5351,1.5384,1.5391,1.5318,1.5318,1.5318,0,0,1.4865,1.4895,1.4916,1.497,1.4996,1.5033,1.5024,1.5064,1.5093,1.5101,1.5152,1.5173,1.5213,1.5267,1.5293,1.5286,1.5373,1.535,1.5352,1.5355,1.5388,1.5395,1.5401,1.532,1.532,1.5319,0,0,1.4907,1.4932,1.4971,1.4998,1.5037,1.5056,1.5065,1.5106,1.512,1.5171,1.5179,1.5214,1.528,1.5308,1.5331,1.5386,1.539,1.5397,1.5419,1.5451,1.5456,1.5462,1.5483,1.549,1.5402,1.5402,1.5402,0,1.4918,1.4974,1.4991,1.5031,1.5056,1.5064,1.5105,1.513,1.518,1.5197,1.5189,1.5274,1.5301,1.5363,1.5376,1.5394,1.5407,1.5393,1.5454,1.5459,1.5465,1.5485,1.5493,1.5403,1.5403,1.5403,1.5403,0,1.4986,1.5025,1.5052,1.5099,1.5127,1.5167,1.5192,1.5218,1.5227,1.5247,1.53,1.5333,1.5378,1.5394,1.5403,1.5458,1.5453,1.5449,1.5435,1.5472,1.5492,1.5499,1.5404,1.5404,1.5404,1.5403,0,0,1.5029,1.5086,1.5096,1.5119,1.5163,1.5194,1.5236,1.5279,1.5302,1.5337,1.5373,1.543,1.5427,1.5453,1.5466,1.5494,1.5537,1.5487,1.5488,1.5496,1.5602,1.5605,1.5614,1.554,1.5541,1.5542,1.5599,0,1.5077,1.515,1.5167,1.523,1.5268,1.5277,1.5313,1.5345,1.5365,1.5401,1.5423,1.5464,1.5456,1.5472,1.55,1.5525,1.5559,1.5522,1.5575,1.5577,1.5566,1.5624,1.5627,1.5679,1.5606,1.5608,1.5609,0,1.5143,1.5178,1.5245,1.5286,1.5303,1.5335,1.5378,1.5411,1.5448,1.5461,1.5491,1.5501,1.5546,1.5529,1.5593,1.5567,1.559,1.5606,1.5609,1.5616,1.5596,1.5633,1.5696,1.5704,1.5621,1.562,1.5619,0,1.5169,1.5234,1.5283,1.5302,1.5351,1.5373,1.5395,1.5431,1.5457,1.5494,1.5512,1.5554,1.5578,1.5611,1.5633,1.5619,1.5696,1.568,1.5709,1.5709,1.5726,1.5725,1.5795,1.5739,1.5739,1.5738,1.5738,0,1.5222,1.5263,1.5296,1.5326,1.5373,1.5393,1.5439,1.5461,1.5493,1.5529,1.554,1.5573,1.56,1.5637,1.5655,1.5706,1.5716,1.5729,1.5734,1.5729,1.5728,1.5745,1.5743,1.574,1.574,1.574,1.5739,0,1.526,1.5284,1.5338,1.538,1.5391,1.5424,1.5461,1.5491,1.5511,1.5557,1.5569,1.5601,1.5646,1.5671,1.5728,1.574,1.5797,1.5799,1.5785,1.5787,1.5815,1.5813,1.59,1.5913,1.5847,1.5847,1.5848,0,1.5293,1.5325,1.537,1.5394,1.5416,1.5455,1.5482,1.5504,1.5531,1.5577,1.5602,1.5648,1.5685,1.5757,1.5787,1.5831,1.5835,1.5862,1.5841,1.5836,1.5837,1.5835,1.584,1.5866,1.5867,1.5867,1.5868,0,1.5349,1.536,1.5397,1.5439,1.547,1.5504,1.5538,1.5558,1.5585,1.5616,1.5662,1.5691,1.5749,1.5795,1.5841,1.5865,1.5872,1.5874,1.5883,1.5879,1.587,1.5877,1.5796,1.5872,1.5871,1.5871,1.5871,1.5871,1.5387,1.5416,1.5453,1.5495,1.5522,1.5554,1.5585,1.561,1.5648,1.5697,1.5707,1.5756,1.5795,1.5858,1.5883,1.5922,1.5917,1.593,1.5934,1.5937,1.5939,1.5863,1.5931,1.5931,1.593,1.593,1.593,0,1.5445,1.5469,1.5507,1.5555,1.5588,1.559,1.5628,1.5656,1.5699,1.5734,1.5771,1.5824,1.5869,1.5902,1.5948,1.5974,1.5978,1.5985,1.5985,1.599,1.594,1.5928,1.5981,1.5981,1.5981,1.5981,1.5981,1.5981,1.5479,1.553,1.5544,1.5609,1.5634,1.5681,1.5703,1.5733,1.5761,1.582,1.5857,1.5878,1.5913,1.5962,1.6004,1.6012,1.603,1.6037,1.6046,1.5999,1.5994,1.5988,1.5977,1.604,1.604,1.6093,1.6094,1.6094]},{"header":{"parameterUnit":"m.s-1","parameterCategory":1,"la1":30.2991,"la2":30.254,"lo1":-89.0895,"lo2":-89.0444,"dy":0.0017,"dx":0.0017,"nx":28,"ny":28,"refTime":"2024-02-13T09:00:00:Z","depth":0,"parameterNumber":3,"parameterNumberName":"V-component_of_WINDS"},"data":[0,0,0,0,0,0,0,0,0,0,0,0,0,0,0,0,0,0,0,0,0,0,0,0,0,0,0,0,0,0,0,0,0,0,0,0,0,0,0,0,0,0,0,0,0,0,0,0,0,0,0,0,0,0,0,0,0,0,-2.0294,-2.0294,0,-2.0351,-2.0352,-2.0352,-2.0393,-2.0393,-2.0393,-2.0394,-2.0451,-2.0452,-2.0453,0,0,0,0,0,0,0,0,0,0,0,0,0,-2.022,-2.0221,-2.0293,-2.0294,-2.0295,-2.0351,-2.0352,-2.0352,-2.0393,-2.0393,-2.0394,-2.0394,-2.0451,-2.0452,-2.0453,0,0,0,0,0,0,0,0,0,0,0,0,0,-2.0262,-2.0222,-2.0293,-2.0322,-2.0325,-2.0351,-2.0352,-2.0353,-2.0393,-2.0393,-2.0394,-2.0394,-2.045,-2.0452,-2.0454,-2.0455,0,0,-2.0459,-2.046,0,0,0,0,0,0,0,0,-2.026,-2.0265,-2.0317,-2.032,-2.0323,-2.0365,-2.0347,-2.0387,-2.0393,-2.0367,-2.0394,-2.0394,-2.0422,-2.0426,-2.0436,-2.0458,-2.046,-2.0459,-2.0461,-2.0461,-2.0462,0,0,0,0,0,0,0,-2.0257,-2.0263,-2.0316,-2.0318,-2.0322,-2.0332,-2.0339,-2.0355,-2.0391,-2.0369,-2.0372,-2.0379,-2.0424,-2.0434,-2.0437,-2.0461,-2.0459,-2.0461,-2.0462,-2.0463,-2.0491,-2.0491,0,0,0,0,0,0,-2.0249,-2.026,-2.0314,-2.0318,-2.0292,-2.0333,-2.034,-2.0351,-2.0391,-2.0397,-2.0378,-2.038,-2.0431,-2.0435,-2.044,-2.0446,-2.0461,-2.0463,-2.0464,-2.0492,-2.0491,-2.0491,0,0,0,0,0,0,-2.0248,-2.0254,-2.0312,-2.029,-2.0298,-2.0334,-2.0346,-2.0352,-2.0362,-2.0398,-2.0404,-2.0382,-2.0431,-2.0437,-2.0452,-2.0449,-2.0464,-2.0466,-2.0492,-2.0492,-2.0491,-2.0458,0,0,0,0,0,0,-2.0245,-2.0253,-2.0253,-2.029,-2.0299,-2.0323,-2.0346,-2.0353,-2.0366,-2.0369,-2.0403,-2.0409,-2.0432,-2.0449,-2.0454,-2.0452,-2.0467,-2.0493,-2.0492,-2.0491,-2.046,-2.0457,-2.0454,0,0,0,0,0,-2.0243,-2.024,-2.0253,-2.0259,-2.03,-2.0322,-2.0328,-2.0355,-2.0365,-2.0366,-2.039,-2.0408,-2.0449,-2.045,-2.0456,-2.0454,-2.0493,-2.0492,-2.0491,-2.0461,-2.0457,-2.0454,0,0,0,0,0,0,-2.0201,-2.0246,-2.026,-2.0269,-2.0292,-2.0329,-2.0331,-2.035,-2.0369,-2.0372,-2.0404,-2.0412,-2.0424,-2.044,-2.0442,-2.046,-2.0473,-2.0473,-2.0448,-2.0445,-2.0442,-2.0438,-2.0468,0,0,0,0,0,-2.0194,-2.0208,-2.0246,-2.0251,-2.0262,-2.0295,-2.0305,-2.0325,-2.0349,-2.0359,-2.0383,-2.0406,-2.0425,-2.0435,-2.0454,-2.0463,-2.0472,-2.0465,-2.0462,-2.0459,-2.0459,-2.0468,-2.0466,-2.0489,-2.0489,-2.0489,0,0,-2.0177,-2.0203,-2.021,-2.0243,-2.0263,-2.0278,-2.0302,-2.0316,-2.0328,-2.036,-2.0377,-2.0396,-2.0424,-2.0437,-2.0443,-2.0451,-2.0455,-2.0458,-2.0456,-2.0457,-2.0467,-2.0465,-2.0463,-2.0488,-2.0488,-2.0488,0,0,-2.0155,-2.0175,-2.0183,-2.0204,-2.0234,-2.0257,-2.0259,-2.0294,-2.0308,-2.0326,-2.0351,-2.0366,-2.0396,-2.0416,-2.043,-2.0421,-2.0439,-2.0426,-2.041,-2.0419,-2.0417,-2.0416,-2.0414,-2.0413,-2.0426,-2.0425,-2.0425,0,-2.013,-2.0154,-2.0185,-2.0198,-2.0213,-2.0246,-2.0255,-2.0273,-2.0307,-2.0317,-2.0325,-2.0367,-2.0387,-2.0407,-2.0405,-2.0415,-2.0419,-2.0422,-2.0415,-2.0414,-2.0413,-2.0412,-2.0411,-2.0424,-2.0424,-2.0424,-2.0424,0,-2.0124,-2.014,-2.0143,-2.0177,-2.0193,-2.0203,-2.0237,-2.0249,-2.0268,-2.029,-2.0309,-2.0336,-2.0362,-2.0368,-2.0386,-2.0391,-2.0395,-2.0409,-2.0423,-2.0408,-2.0408,-2.0407,-2.0421,-2.0422,-2.0422,-2.0423,0,0,-2.0075,-2.0129,-2.0129,-2.0147,-2.0185,-2.0198,-2.0212,-2.0239,-2.025,-2.0273,-2.0287,-2.0314,-2.0328,-2.0344,-2.0365,-2.0372,-2.0365,-2.0385,-2.0386,-2.0381,-2.0375,-2.0365,-2.0364,-2.0378,-2.0378,-2.0378,-2.0373,0,-2.0059,-2.0086,-2.0116,-2.0132,-2.0149,-2.0182,-2.0195,-2.022,-2.0242,-2.026,-2.0284,-2.0303,-2.0319,-2.033,-2.0338,-2.0364,-2.0364,-2.0365,-2.0391,-2.0392,-2.0384,-2.0363,-2.0352,-2.0346,-2.0373,-2.0373,-2.0373,0,-2.0044,-2.0069,-2.0087,-2.0127,-2.0135,-2.0146,-2.0175,-2.0191,-2.0221,-2.0237,-2.0257,-2.028,-2.0298,-2.0311,-2.0337,-2.0336,-2.0349,-2.0364,-2.0365,-2.0368,-2.0381,-2.0367,-2.0344,-2.0343,-2.0372,-2.0372,-2.0372,0,-2.0009,-2.0046,-2.0063,-2.0077,-2.0123,-2.013,-2.015,-2.018,-2.0196,-2.0221,-2.0232,-2.0259,-2.0273,-2.0294,-2.0324,-2.0331,-2.0348,-2.0363,-2.0362,-2.0362,-2.0364,-2.0363,-2.0344,-2.0371,-2.0371,-2.0371,-2.0371,0,-1.9989,-1.9999,-2.0048,-2.0058,-2.0072,-2.0107,-2.012,-2.0142,-2.017,-2.0187,-2.0216,-2.0231,-2.027,-2.029,-2.0314,-2.0333,-2.0339,-2.0353,-2.0359,-2.0351,-2.0349,-2.0359,-2.0361,-2.0371,-2.0371,-2.0371,-2.0371,0,-1.9951,-1.9984,-2.0005,-2.0048,-2.0059,-2.0068,-2.0105,-2.0117,-2.0142,-2.0162,-2.0169,-2.0208,-2.0234,-2.0266,-2.0301,-2.0318,-2.0334,-2.0343,-2.0324,-2.0328,-2.0326,-2.0327,-2.0313,-2.0314,-2.034,-2.034,-2.0339,0,-1.9936,-1.9945,-1.9991,-2.0004,-2.0023,-2.0044,-2.0061,-2.0097,-2.0113,-2.0151,-2.0158,-2.0186,-2.021,-2.0249,-2.0281,-2.0309,-2.032,-2.0313,-2.0324,-2.0316,-2.0321,-2.032,-2.0322,-2.031,-2.031,-2.0309,-2.0309,0,-1.9907,-1.9924,-1.9947,-1.9977,-1.9996,-2.0021,-2.0047,-2.0057,-2.0098,-2.0116,-2.0142,-2.0161,-2.0199,-2.0227,-2.0259,-2.028,-2.0302,-2.0306,-2.0308,-2.0299,-2.0288,-2.0295,-2.0318,-2.0306,-2.0306,-2.0306,-2.0306,-2.0307,-1.9881,-1.9892,-1.9927,-1.9952,-1.9976,-2.0001,-2.0016,-2.0044,-2.0067,-2.0101,-2.0121,-2.0147,-2.0181,-2.0227,-2.0247,-2.0269,-2.0278,-2.0279,-2.028,-2.028,-2.0278,-2.0284,-2.0275,-2.0275,-2.0276,-2.0276,-2.0276,0,-1.9855,-1.988,-1.9903,-1.994,-1.9961,-1.9981,-2.0012,-2.0028,-2.0052,-2.0081,-2.0105,-2.0138,-2.0166,-2.0201,-2.0232,-2.0243,-2.0254,-2.025,-2.025,-2.0255,-2.0268,-2.0264,-2.0241,-2.0241,-2.0241,-2.0241,-2.0241,-2.0241,-1.9844,-1.9864,-1.9886,-1.9919,-1.9944,-1.9971,-1.9988,-2.0011,-2.0035,-2.0071,-2.0095,-2.0118,-2.015,-2.0185,-2.0212,-2.0222,-2.0232,-2.0225,-2.0238,-2.025,-2.0253,-2.0256,-2.0253,-2.0227,-2.0227,-2.0223,-2.0223,-2.0223]}]]